Regional Weather Roundup
Issued by NWS Kansas City/Pleasant Hill, MO

Home | Current Version | Previous Version | Text Only | Print | Product List | Glossary On
Versions: 1 2 3 4 5 6 7 8 9 10 11 12 13 14 15 16 17 18 19 20 21 22 23 24 25 26 27 28
000
ASUS43 KEAX 101010
RWREAX

WEATHER ROUNDUP FOR EASTERN KANSAS AND NORTHWEST MISSOURI
NATIONAL WEATHER SERVICE KANSAS CITY/PLEASANT HILL MO
400 AM CST SUN DEC 10 2017

KSZ040-057-103>105-MOZ028-029-037-043-101100-
...KANSAS CITY METROPOLITAN AREA...

CITY           SKY/WX    TMP DP  RH WIND       PRES   REMARKS
K.C. INTL      CLEAR     31  22  69 SW14      30.04F WCI  21
K.C. DOWNTOWN  CLEAR     35  22  58 SW9       30.06F WCI  28
LEES SUMMIT    CLOUDY    32  21  64 SW16      30.07F WCI  21
OLATHE - IXD   CLEAR     32  22  66 SW10      30.09F WCI  24
OLATHE - OJC   CLEAR     28  20  71 SW9       30.08F WCI  19
LAWRENCE       CLOUDY    27  20  75 CALM      30.08F

$$

MOZ001>008-011>017-020>025-030>033-038>040-044>046-053-054-101100-
...NORTHERN AND CENTRAL MISSOURI...

CITY           SKY/WX    TMP DP  RH WIND       PRES   REMARKS
ST. JOSEPH     CLOUDY    25  20  81 S6        30.05F WCI  18
MOSBY          CLOUDY    23  19  86 CALM      30.06F
WARRENSBURG    CLEAR     28  21  74 S9        30.09F WCI  20
WHITEMAN AFB   CLEAR     30  20  68 SW13      30.05F WCI  20
CLINTON        CLOUDY    28  19  69 SW9G16    30.14F WCI  20
SEDALIA        CLOUDY    30  22  72 SW17      30.11F WCI  18
WARSAW         NOT AVBL
CHILLICOTHE      N/A     24  18  77 S8        30.02F WCI  15
KIRKSVILLE     CLEAR     24  18  77 SW13      29.99F WCI  12

$$

MOZ041-047>049-056>058-063>065-088>090-097-101100-
...EASTERN AND SOUTHERN MISSOURI...

CITY           SKY/WX    TMP DP  RH WIND       PRES   REMARKS
ST. LOUIS INTL CLOUDY    24  17  74 S9        30.15F WCI  14
SPIRIT OF STL  CLEAR     21  15  78 CALM      30.15F
COLUMBIA       CLOUDY    24  18  77 S12       30.10F WCI  13
JEFFERSON CITY CLOUDY    25  16  68 S5        30.14F WCI  19
ROLLA          CLOUDY    24  17  74 S13       30.13F WCI  12
OSAGE BEACH    CLOUDY    19  16  88 CALM      30.16F
SPRINGFIELD    CLOUDY    25  18  74 S8        30.18F WCI  16
BRANSON        CLOUDY    32  19  59 SW5       30.23S WCI  27
JOPLIN         CLEAR     30  23  75 SW10      30.21F WCI  21
WEST PLAINS    CLOUDY    24  16  71 SW5       30.21F WCI  18

$$

IAZ060-094-KSZ022-034>040-054-083-096-NEZ052-066-093-101100-
...KANSAS...SOUTHEAST NEBRASKA AND IOWA...

CITY           SKY/WX    TMP DP  RH WIND       PRES   REMARKS
TOPEKA         CLOUDY    23  21  92 NW5       30.09S WCI  17
MANHATTAN      CLEAR     28  19  69 S5        30.12S WCI  23
EMPORIA        CLEAR     37  19  48 W10       30.12F WCI  30
CHANUTE        CLEAR     31  21  66 S10       30.17F WCI  22
WICHITA        CLOUDY    34  21  59 W10       30.19S WCI  26
OMAHA          CLOUDY    37  22  54 W13       30.00S WCI  29
LINCOLN        CLEAR     40  20  44 NW12      30.05S WCI  33
FALLS CITY     CLOUDY    34  20  56 W10       30.03S WCI  26
LAMONI         CLEAR     26  18  71 SW12      29.95F WCI  16
DES MOINES     PTCLDY    30  21  69 W9        29.93R WCI  22

$$





USA.gov is the U.S. government's official web portal to all federal, state and local government web resources and services.